Paso Robles, CA

3:42 PM PST on December 15, 2019 (GMT -0800)
Paso Robles Municipal

Weather History for KPRB - October, 2019

Change the Weather History Date:

Wednesday, October 30, 2019

  Actual Average Record
Temperature  
Mean Temperature 54 °F 58 °F  
Max Temperature 75 °F 74 °F 91 °F (1966)
Min Temperature 32 °F 41 °F 21 °F (1971)
Degree Days  
Heating Degree Days 12 8  
Month to date heating degree days 126 130  
Since 1 July heating degree days 152 162  
Cooling Degree Days 0 0  
Month to date cooling degree days 28 34  
Year to date cooling degree days 1063 925  
Growing Degree Days 4 (Base 50)    
Moisture  
Dew Point 3 °F    
Average Humidity 19    
Maximum Humidity 56    
Minimum Humidity 3    
Precipitation  
Precipitation 0.00 in 0.04 in 0.47 in (1982)
Month to date precipitation 0.00 0.59  
Year to date precipitation 11.28 9.71  
Sea Level Pressure  
Sea Level Pressure 30.11 in    
Wind  
Wind Speed 7 mph ()    
Max Wind Speed 21 mph    
Max Gust Speed 24 mph    
Visibility 9.7 miles    
Events      
T = Trace of Precipitation, MM = Missing Value Source: Averaged Metar Reports

Daily Weather History Graph

Daily Weather History Graph

Search for Another Location

Airport or City:

Astronomy

Oct. 30, 2019 Rise Set
Actual Time 7:22 AM PDT 6:09 PM PDT
Civil Twilight 6:56 AM PDT 6:35 PM PDT
Nautical Twilight 6:26 AM PDT 7:05 PM PDT
Astronomical Twilight 5:56 AM PDT 7:35 PM PDT
Moon 10:07 AM PDT (10/30) 8:25 PM PDT (10/30)
Length of Visible Light 11h 39m
Length of Day
10h 46m
Waxing Crescent, 9% of the Moon is Illuminated
Oct 30
Waxing Crescent
Nov 4
First Quarter
Nov 12
Full
Nov 19
Last Quarter
Nov 26
New

Hourly Weather History & Observations

Time (PDT) Temp. Windchill Dew Point Humidity Pressure Visibility Wind Dir Wind Speed Gust Speed Precip Events Conditions
12:53 AM 42.1 °F 37.7 °F 21.0 °F 43% 29.99 in 10.0 mi ENE 6.9 mph - N/A   Clear
1:53 AM 44.1 °F 40.8 °F 18.0 °F 35% 30.01 in 10.0 mi ESE 5.8 mph - N/A   Clear
2:53 AM 43.0 °F 41.3 °F 19.9 °F 40% 30.02 in 10.0 mi ENE 3.5 mph - N/A   Clear
3:53 AM 37.9 °F 35.5 °F 19.0 °F 47% 30.03 in 10.0 mi ENE 3.5 mph - N/A   Clear
4:53 AM 37.9 °F - 19.9 °F 48% 30.04 in 10.0 mi Calm Calm - N/A   Clear
5:53 AM 36.0 °F 33.3 °F 19.0 °F 50% 30.06 in 10.0 mi NNW 3.5 mph - N/A   Clear
6:53 AM 34.0 °F - 19.0 °F 54% 30.08 in 10.0 mi North - - N/A   Clear
7:53 AM 35.1 °F - 18.0 °F 50% 30.11 in 10.0 mi Calm Calm - N/A   Clear
8:53 AM 42.1 °F - 21.0 °F 43% 30.14 in 10.0 mi Calm Calm - N/A   Clear
9:53 AM 50.0 °F - 21.9 °F 33% 30.14 in 10.0 mi WNW 4.6 mph - N/A   Clear
10:53 AM 64.9 °F - 3.9 °F 9% 30.13 in 10.0 mi East 9.2 mph - N/A   Clear
11:53 AM 69.1 °F - -2.0 °F 6% 30.12 in 10.0 mi East 13.8 mph - N/A   Clear
12:39 PM 71.1 °F - -5.1 °F 5% 30.12 in 7.0 mi East 13.8 mph - N/A   Mostly Cloudy
12:53 PM 72.0 °F - -4.0 °F 5% 30.11 in 10.0 mi East 13.8 mph - N/A   Mostly Cloudy
1:01 PM 73.0 °F - -4.0 °F 5% 30.11 in 10.0 mi East 15.0 mph - N/A   Scattered Clouds
1:31 PM 73.0 °F - -6.0 °F 4% 30.11 in 5.0 mi ENE 17.3 mph - N/A   Haze
1:53 PM 73.0 °F - -2.9 °F 5% 30.10 in 9.0 mi East 15.0 mph - N/A   Mostly Cloudy
2:21 PM 73.0 °F - -4.0 °F 5% 30.10 in 10.0 mi East 13.8 mph - N/A   Scattered Clouds
2:28 PM 73.9 °F - -4.0 °F 5% 30.10 in 10.0 mi ENE 13.8 mph - N/A   Mostly Cloudy
2:53 PM 73.9 °F - -5.1 °F 4% 30.09 in 10.0 mi ENE 17.3 mph - N/A   Mostly Cloudy
3:06 PM 73.9 °F - -6.0 °F 4% 30.10 in 10.0 mi ENE 15.0 mph - N/A   Partly Cloudy
3:53 PM 73.9 °F - -4.0 °F 5% 30.10 in 10.0 mi ENE 16.1 mph - N/A   Clear
4:53 PM 71.1 °F - -11.0 °F 4% 30.11 in 10.0 mi ENE 15.0 mph - N/A   Clear
5:53 PM 66.0 °F - -11.0 °F 4% 30.13 in 10.0 mi East 12.7 mph - N/A   Clear
6:53 PM 60.1 °F - -8.0 °F 6% 30.15 in 10.0 mi ENE 9.2 mph - N/A   Clear
7:53 PM 57.0 °F - -7.1 °F 7% 30.17 in 10.0 mi East 5.8 mph - N/A   Clear
8:53 PM 53.1 °F - -7.1 °F 8% 30.18 in 10.0 mi Calm Calm - N/A   Clear
9:53 PM 48.0 °F - -7.1 °F 10% 30.20 in 10.0 mi Calm Calm - N/A   Clear
10:53 PM 46.9 °F - -2.0 °F 13% 30.19 in 10.0 mi Calm Calm - N/A   Clear
11:53 PM 45.0 °F 43.5 °F -0.9 °F 15% 30.20 in 10.0 mi NNW 3.5 mph - N/A   Clear